﻿_id,日時,平均風速(m/s),平均風向,最大瞬間風速(m/s),最大風速時風向,気温(℃),湿度(%),10分間移動積算雨量(mm),1時間移動積算雨量(mm),日雨量(mm),累計雨量(mm),日射(日積算)(MJ/m2),日照(日積算)(min),現地気圧(hPa),海面気圧(hPa)
1,2023-06-19T00:00:00,3,北東,4.6,北東,20.8,80.5,0,0,0,0,18.14,385,994.3,1007.8
2,2023-06-19T00:01:00,3,北東,4.6,北東,20.7,80.9,0,0,0,0,0,0,994.4,1007.9
3,2023-06-19T00:02:00,3,北東,4.6,北東,20.5,80.7,0,0,0,0,0,0,994.4,1007.9
4,2023-06-19T00:03:00,2.9,北東,4.6,北東,20.8,81.3,0,0,0,0,0,0,994.3,1007.8
5,2023-06-19T00:04:00,2.9,北東,4.6,北東,20.8,81.7,0,0,0,0,0,0,994.3,1007.8
6,2023-06-19T00:05:00,2.8,北東,4.6,北東,20.8,81.1,0,0,0,0,0,0,994.4,1007.9
7,2023-06-19T00:06:00,2.8,北東,4.6,北東,20.7,81.1,0,0,0,0,0,0,994.4,1007.9
8,2023-06-19T00:07:00,2.8,北東,4.6,北東,20.7,81.2,0,0,0,0,0,0,994.4,1007.9
9,2023-06-19T00:08:00,2.8,北東,4.6,北東,20.7,81.1,0,0,0,0,0,0,994.3,1007.8
10,2023-06-19T00:09:00,2.7,北東,4.6,北東,20.8,81.5,0,0,0,0,0,0,994.3,1007.8
11,2023-06-19T00:10:00,2.6,北東,4.5,北東,20.7,81.2,0,0,0,0,0,0,994.3,1007.8
12,2023-06-19T00:11:00,2.4,北東,3.7,北東,20.5,80.6,0,0,0,0,0,0,994.3,1007.8
13,2023-06-19T00:12:00,2.4,北東,3.7,北東,20.8,81.5,0,0,0,0,0,0,994.3,1007.8
14,2023-06-19T00:13:00,2.4,北東,3.7,北東,20.9,81.7,0,0,0,0,0,0,994.3,1007.8
15,2023-06-19T00:14:00,2.3,北東,3.7,北東,20.8,81.1,0,0,0,0,0,0,994.3,1007.8
16,2023-06-19T00:15:00,2.3,北東,3.7,北東,20.9,80.9,0,0,0,0,0,0,994.3,1007.8
17,2023-06-19T00:16:00,2.2,北東,3.4,北東,21,81,0,0,0,0,0,0,994.3,1007.8
18,2023-06-19T00:17:00,2.2,北東,3.4,北東,20.9,80.4,0,0,0,0,0,0,994.3,1007.8
19,2023-06-19T00:18:00,2.2,北東,3.4,北東,21,80.2,0,0,0,0,0,0,994.3,1007.8
20,2023-06-19T00:19:00,2.1,北東,3.4,北東,20.8,79.7,0,0,0,0,0,0,994.3,1007.8
21,2023-06-19T00:20:00,2.1,北東,3.4,北東,20.9,80.1,0,0,0,0,0,0,994.3,1007.8
22,2023-06-19T00:21:00,2.1,北東,3.4,北東,20.8,80.1,0,0,0,0,0,0,994.3,1007.8
23,2023-06-19T00:22:00,2,北東,3.4,北東,20.9,80.1,0,0,0,0,0,0,994.2,1007.7
24,2023-06-19T00:23:00,2,北東,3.4,北東,20.8,80,0,0,0,0,0,0,994.2,1007.7
25,2023-06-19T00:24:00,1.9,北東,3.4,北東,20.8,80.1,0,0,0,0,0,0,994.2,1007.7
26,2023-06-19T00:25:00,1.9,北東,3,北,20.8,79.9,0,0,0,0,0,0,994.3,1007.8
27,2023-06-19T00:26:00,1.9,北北東,3,北,20.8,79.9,0,0,0,0,0,0,994.3,1007.8
28,2023-06-19T00:27:00,1.9,北北東,3,北,20.7,80,0,0,0,0,0,0,994.3,1007.8
29,2023-06-19T00:28:00,1.8,北北東,2.7,北東,20.9,80.4,0,0,0,0,0,0,994.3,1007.8
30,2023-06-19T00:29:00,1.9,北北東,2.7,北東,20.8,80.3,0,0,0,0,0,0,994.2,1007.7
31,2023-06-19T00:30:00,1.9,北北東,2.7,北東,20.8,80,0,0,0,0,0,0,994.2,1007.7
32,2023-06-19T00:31:00,1.9,北北東,2.7,北東,20.7,80.2,0,0,0,0,0,0,994.2,1007.7
33,2023-06-19T00:32:00,1.9,北北東,2.8,北北東,20.5,79.9,0,0,0,0,0,0,994.2,1007.7
34,2023-06-19T00:33:00,1.9,北北東,2.8,北北東,20.6,80.2,0,0,0,0,0,0,994.2,1007.7
35,2023-06-19T00:34:00,1.9,北北東,2.8,北北東,20.6,80.5,0,0,0,0,0,0,994.1,1007.6
36,2023-06-19T00:35:00,1.9,北北東,2.8,北北東,20.6,80.6,0,0,0,0,0,0,994.1,1007.6
37,2023-06-19T00:36:00,1.8,北北東,2.8,北北東,20.6,80.6,0,0,0,0,0,0,994.1,1007.6
38,2023-06-19T00:37:00,1.8,北北東,2.8,北北東,20.7,80.8,0,0,0,0,0,0,994.1,1007.6
39,2023-06-19T00:38:00,1.7,北北東,2.8,北北東,20.6,80.7,0,0,0,0,0,0,994.1,1007.6
40,2023-06-19T00:39:00,1.7,北北東,2.8,北北東,20.5,80.4,0,0,0,0,0,0,994.1,1007.6
41,2023-06-19T00:40:00,1.6,北東,2.8,北北東,20.4,80.4,0,0,0,0,0,0,994.1,1007.6
42,2023-06-19T00:41:00,1.6,北東,2.8,北北東,20.6,81,0,0,0,0,0,0,994.1,1007.6
43,2023-06-19T00:42:00,1.5,北東,2.7,北,20.5,81.1,0,0,0,0,0,0,994,1007.5
44,2023-06-19T00:43:00,1.5,北東,2.7,北,20.6,80.8,0,0,0,0,0,0,994,1007.5
45,2023-06-19T00:44:00,1.5,北東,2.3,北東,20.5,80.2,0,0,0,0,0,0,994,1007.5
46,2023-06-19T00:45:00,1.5,北東,2.3,北東,20.5,80.3,0,0,0,0,0,0,994,1007.5
47,2023-06-19T00:46:00,1.5,北東,2.3,北東,20.6,80.7,0,0,0,0,0,0,994,1007.5
48,2023-06-19T00:47:00,1.5,北東,2.1,北東,20.7,80.9,0,0,0,0,0,0,994,1007.5
49,2023-06-19T00:48:00,1.4,北東,2.1,北東,20.7,80.5,0,0,0,0,0,0,994,1007.5
50,2023-06-19T00:49:00,1.3,北東,2.1,北東,20.7,80.3,0,0,0,0,0,0,994,1007.5
51,2023-06-19T00:50:00,1.3,北東,2.1,北東,20.5,79.8,0,0,0,0,0,0,994,1007.5
52,2023-06-19T00:51:00,1.3,北東,2.1,北東,20.5,80.2,0,0,0,0,0,0,993.9,1007.4
53,2023-06-19T00:52:00,1.2,北東,2.1,北東,20.4,79.9,0,0,0,0,0,0,993.9,1007.4
54,2023-06-19T00:53:00,1.3,北東,2.1,北東,20.5,80.4,0,0,0,0,0,0,993.9,1007.4
55,2023-06-19T00:54:00,1.3,北東,2.1,北東,20.4,80.4,0,0,0,0,0,0,993.9,1007.4
56,2023-06-19T00:55:00,1.2,北東,2,北東,20.4,80.5,0,0,0,0,0,0,993.9,1007.4
57,2023-06-19T00:56:00,1.2,北東,1.8,北東,20.4,80.2,0,0,0,0,0,0,993.9,1007.4
58,2023-06-19T00:57:00,1.2,北東,1.8,北東,20.4,80.2,0,0,0,0,0,0,993.8,1007.3
59,2023-06-19T00:58:00,1.1,北東,1.8,北東,20.4,80.1,0,0,0,0,0,0,993.8,1007.3
60,2023-06-19T00:59:00,1.1,北東,1.8,北東,20.3,80.4,0,0,0,0,0,0,993.8,1007.3
61,2023-06-19T01:00:00,1.1,北東,1.8,北東,20.3,80.4,0,0,0,0,0,0,993.8,1007.3
62,2023-06-19T01:01:00,1.1,北東,1.8,北東,20.4,80.8,0,0,0,0,0,0,993.8,1007.3
63,2023-06-19T01:02:00,1.1,北東,1.8,北東,20.3,80.6,0,0,0,0,0,0,993.8,1007.3
64,2023-06-19T01:03:00,1,北東,1.7,北東,20.2,80.4,0,0,0,0,0,0,993.7,1007.2
65,2023-06-19T01:04:00,1,北東,1.6,北東,20.1,80.4,0,0,0,0,0,0,993.7,1007.2
66,2023-06-19T01:05:00,0.9,北東,1.4,北東,20.2,80.8,0,0,0,0,0,0,993.7,1007.2
67,2023-06-19T01:06:00,0.9,北東,1.4,北東,20.3,80.9,0,0,0,0,0,0,993.7,1007.2
68,2023-06-19T01:07:00,0.8,北東,1.4,北東,20.3,80.7,0,0,0,0,0,0,993.7,1007.2
69,2023-06-19T01:08:00,0.9,北北東,1.4,北東,20.3,80.7,0,0,0,0,0,0,993.6,1007.1
70,2023-06-19T01:09:00,0.9,北北東,1.5,北北東,20.3,80.9,0,0,0,0,0,0,993.6,1007.1
71,2023-06-19T01:10:00,0.9,北北東,1.5,北北東,20.2,80.7,0,0,0,0,0,0,993.6,1007.1
72,2023-06-19T01:11:00,0.9,北北東,1.5,北北東,20.3,81.1,0,0,0,0,0,0,993.6,1007.1
73,2023-06-19T01:12:00,0.8,北北東,1.5,北北東,20.2,81.1,0,0,0,0,0,0,993.6,1007.1
74,2023-06-19T01:13:00,0.8,北北東,1.5,北北東,20.1,81,0,0,0,0,0,0,993.6,1007.1
75,2023-06-19T01:14:00,0.8,北北東,1.5,北北東,20.2,81.5,0,0,0,0,0,0,993.6,1007.1
76,2023-06-19T01:15:00,0.8,北北東,1.5,北北東,20.2,81.4,0,0,0,0,0,0,993.6,1007.1
77,2023-06-19T01:16:00,0.8,北北東,1.5,北北東,20.2,81.7,0,0,0,0,0,0,993.6,1007.1
78,2023-06-19T01:17:00,0.8,北北東,1.5,北北東,20.2,81.6,0,0,0,0,0,0,993.6,1007.1
79,2023-06-19T01:18:00,0.8,北北東,1.5,北北東,20.1,81.6,0,0,0,0,0,0,993.6,1007.1
80,2023-06-19T01:19:00,0.9,北北東,1.5,北東,20.1,81.9,0,0,0,0,0,0,993.6,1007.1
81,2023-06-19T01:20:00,0.9,北北東,1.6,北東,20,81.8,0,0,0,0,0,0,993.6,1007.1
82,2023-06-19T01:21:00,1,北北東,2,北東,20,81.7,0,0,0,0,0,0,993.6,1007.1
83,2023-06-19T01:22:00,1,北東,2,北東,19.9,81.5,0,0,0,0,0,0,993.6,1007.1
84,2023-06-19T01:23:00,1,北東,2,北東,19.9,81.7,0,0,0,0,0,0,993.6,1007.1
85,2023-06-19T01:24:00,1.1,北東,2,北東,20,82.1,0,0,0,0,0,0,993.6,1007.1
86,2023-06-19T01:25:00,1.1,北東,2,北東,20.2,82.5,0,0,0,0,0,0,993.6,1007.1
87,2023-06-19T01:26:00,1.1,北東,2,北東,20.1,82,0,0,0,0,0,0,993.6,1007.1
88,2023-06-19T01:27:00,1.1,北東,2,北東,20,81.9,0,0,0,0,0,0,993.6,1007.1
89,2023-06-19T01:28:00,1,北北東,2,北東,19.9,81.9,0,0,0,0,0,0,993.6,1007.1
90,2023-06-19T01:29:00,1,北北東,2,北東,20,82.3,0,0,0,0,0,0,993.6,1007.1
91,2023-06-19T01:30:00,1,北北東,2.1,北東,20,82.4,0,0,0,0,0,0,993.6,1007.1
92,2023-06-19T01:31:00,1.1,北北東,2.5,北東,19.8,82.1,0,0,0,0,0,0,993.5,1007
93,2023-06-19T01:32:00,1.1,北北東,2.5,北東,19.8,82.1,0,0,0,0,0,0,993.5,1007
94,2023-06-19T01:33:00,1.1,北北東,2.5,北東,19.8,82.6,0,0,0,0,0,0,993.5,1007
95,2023-06-19T01:34:00,1.2,北北東,2.5,北東,19.9,82.8,0,0,0,0,0,0,993.5,1007
96,2023-06-19T01:35:00,1.2,北北東,2.5,北東,19.7,82.5,0,0,0,0,0,0,993.5,1007
97,2023-06-19T01:36:00,1.2,北東,2.5,北東,19.7,82.7,0,0,0,0,0,0,993.5,1007
98,2023-06-19T01:37:00,1.3,北東,2.5,北東,19.6,83,0,0,0,0,0,0,993.5,1007
99,2023-06-19T01:38:00,1.3,北東,2.5,北東,19.7,83.6,0,0,0,0,0,0,993.5,1007
100,2023-06-19T01:39:00,1.4,北東,2.5,北東,19.7,83.5,0,0,0,0,0,0,993.5,1007
101,2023-06-19T01:40:00,1.4,北東,2.5,北東,19.7,83.5,0,0,0,0,0,0,993.5,1007
102,2023-06-19T01:41:00,1.3,北東,2.3,北北東,19.7,83.5,0,0,0,0,0,0,993.5,1007
103,2023-06-19T01:42:00,1.2,北北東,2.3,北北東,19.6,83.2,0,0,0,0,0,0,993.5,1007
104,2023-06-19T01:43:00,1.2,北北東,2.3,北北東,19.8,83.8,0,0,0,0,0,0,993.4,1006.9
105,2023-06-19T01:44:00,1.2,北北東,2.3,北北東,19.8,83.6,0,0,0,0,0,0,993.4,1006.9
106,2023-06-19T01:45:00,1.2,北北東,2.3,北北東,19.6,83.7,0,0,0,0,0,0,993.4,1006.9
107,2023-06-19T01:46:00,1.2,北北東,2.3,北北東,19.7,83.7,0,0,0,0,0,0,993.4,1006.9
108,2023-06-19T01:47:00,1.2,北北東,2.3,北北東,19.6,83.7,0,0,0,0,0,0,993.4,1006.9
109,2023-06-19T01:48:00,1.3,北北東,2.8,北東,19.6,83.5,0,0,0,0,0,0,993.4,1006.9
110,2023-06-19T01:49:00,1.4,北北東,2.8,北東,19.8,83.6,0,0,0,0,0,0,993.4,1006.9
111,2023-06-19T01:50:00,1.5,北北東,3.4,北東,19.9,84,0,0,0,0,0,0,993.4,1006.9
112,2023-06-19T01:51:00,1.7,北東,3.4,北東,19.7,83.2,0,0,0,0,0,0,993.4,1006.9
113,2023-06-19T01:52:00,1.8,北東,3.4,北東,19.8,82.8,0,0,0,0,0,0,993.4,1006.9
114,2023-06-19T01:53:00,1.9,北東,3.4,北東,19.9,82.8,0,0,0,0,0,0,993.4,1006.9
115,2023-06-19T01:54:00,2.1,北東,3.4,北東,19.8,82.6,0,0,0,0,0,0,993.4,1006.9
116,2023-06-19T01:55:00,2.2,北東,3.4,北東,19.7,82.1,0,0,0,0,0,0,993.4,1006.9
117,2023-06-19T01:56:00,2.2,北東,3.4,北東,19.7,82.1,0,0,0,0,0,0,993.4,1006.9
118,2023-06-19T01:57:00,2.2,北東,3.4,北東,19.9,82.3,0,0,0,0,0,0,993.4,1006.9
119,2023-06-19T01:58:00,2.2,北東,3.4,北東,19.8,82.3,0,0,0,0,0,0,993.4,1006.9
120,2023-06-19T01:59:00,2.1,北東,3.4,北東,19.8,82.3,0,0,0,0,0,0,993.4,1006.9
121,2023-06-19T02:00:00,2,北東,3.2,北東,19.7,82.3,0,0,0,0,0,0,993.4,1006.9
122,2023-06-19T02:01:00,1.9,北東,3.2,北東,19.6,82,0,0,0,0,0,0,993.4,1006.9
123,2023-06-19T02:02:00,1.8,北東,3.2,北東,19.5,82.3,0,0,0,0,0,0,993.4,1006.9
124,2023-06-19T02:03:00,1.6,北東,3.1,北東,19.5,82.8,0,0,0,0,0,0,993.3,1006.8
125,2023-06-19T02:04:00,1.5,北東,2.9,北東,19.4,82.9,0,0,0,0,0,0,993.3,1006.8
126,2023-06-19T02:05:00,1.4,北東,2.5,北東,19.4,82.9,0,0,0,0,0,0,993.3,1006.8
127,2023-06-19T02:06:00,1.3,北東,2.5,北東,19.5,83.6,0,0,0,0,0,0,993.3,1006.8
128,2023-06-19T02:07:00,1.2,北東,2.4,北東,19.4,83.6,0,0,0,0,0,0,993.3,1006.8
129,2023-06-19T02:08:00,1.1,北東,2.3,北東,19.4,83.7,0,0,0,0,0,0,993.3,1006.8
130,2023-06-19T02:09:00,1.1,北東,2.3,北東,19.6,84.1,0,0,0,0,0,0,993.3,1006.8
131,2023-06-19T02:10:00,1.1,北東,2.3,北東,19.7,83.9,0,0,0,0,0,0,993.2,1006.7
132,2023-06-19T02:11:00,1.1,北東,2.3,北東,19.6,83.2,0,0,0,0,0,0,993.2,1006.7
133,2023-06-19T02:12:00,1.1,北東,2.3,北東,19.5,82.7,0,0,0,0,0,0,993.2,1006.7
134,2023-06-19T02:13:00,1.1,北東,2.3,北東,19.7,83,0,0,0,0,0,0,993.2,1006.7
135,2023-06-19T02:14:00,1.2,北東,2.3,北東,19.7,82.7,0,0,0,0,0,0,993.2,1006.7
136,2023-06-19T02:15:00,1.2,北東,2.3,北東,19.6,82.6,0,0,0,0,0,0,993.2,1006.7
137,2023-06-19T02:16:00,1.3,北東,2.3,北東,19.6,82.3,0,0,0,0,0,0,993.2,1006.7
138,2023-06-19T02:17:00,1.3,北東,2.3,北東,19.7,82.6,0,0,0,0,0,0,993.2,1006.7
139,2023-06-19T02:18:00,1.3,北東,2.3,北東,19.6,82.7,0,0,0,0,0,0,993.2,1006.7
140,2023-06-19T02:19:00,1.3,北東,2.3,北東,19.6,82.6,0,0,0,0,0,0,993.2,1006.7
141,2023-06-19T02:20:00,1.3,北東,2.3,北東,19.7,82.7,0,0,0,0,0,0,993.2,1006.7
142,2023-06-19T02:21:00,1.4,北東,2.3,北東,19.5,82.4,0,0,0,0,0,0,993.2,1006.7
143,2023-06-19T02:22:00,1.4,北東,2.3,北東,19.7,82.6,0,0,0,0,0,0,993.2,1006.7
144,2023-06-19T02:23:00,1.4,北東,2.3,北東,19.6,82.6,0,0,0,0,0,0,993.1,1006.6
145,2023-06-19T02:24:00,1.4,北東,2.2,北東,19.5,82.2,0,0,0,0,0,0,993.2,1006.7
146,2023-06-19T02:25:00,1.4,北東,2.2,北東,19.5,82.2,0,0,0,0,0,0,993.2,1006.7
147,2023-06-19T02:26:00,1.5,北東,2.2,北東,19.5,82.1,0,0,0,0,0,0,993.2,1006.7
148,2023-06-19T02:27:00,1.6,北東,2.2,北東,19.5,82.1,0,0,0,0,0,0,993.1,1006.6
149,2023-06-19T02:28:00,1.5,北東,2.1,北東,19.5,82.1,0,0,0,0,0,0,993.1,1006.6
150,2023-06-19T02:29:00,1.5,北東,2.1,北東,19.7,82.6,0,0,0,0,0,0,993.1,1006.6
151,2023-06-19T02:30:00,1.5,北東,2.1,北東,19.6,82.3,0,0,0,0,0,0,993.2,1006.7
152,2023-06-19T02:31:00,1.5,北東,2.1,北東,19.6,82.1,0,0,0,0,0,0,993.2,1006.7
153,2023-06-19T02:32:00,1.5,北東,2.1,北東,19.5,82.1,0,0,0,0,0,0,993.2,1006.7
154,2023-06-19T02:33:00,1.5,北東,2.1,北東,19.3,81.8,0,0,0,0,0,0,993.2,1006.7
155,2023-06-19T02:34:00,1.5,北東,2.4,北東,19.2,82.3,0,0,0,0,0,0,993.2,1006.7
156,2023-06-19T02:35:00,1.5,北北東,2.4,北東,19.5,83.2,0,0,0,0,0,0,993.2,1006.7
157,2023-06-19T02:36:00,1.5,北北東,2.4,北東,19.5,83.1,0,0,0,0,0,0,993.2,1006.7
158,2023-06-19T02:37:00,1.6,北北東,2.5,北北東,19.4,83.1,0,0,0,0,0,0,993.2,1006.7
159,2023-06-19T02:38:00,1.6,北北東,2.5,北北東,19.3,83.1,0,0,0,0,0,0,993.2,1006.7
160,2023-06-19T02:39:00,1.7,北北東,2.5,北北東,19.1,82.9,0,0,0,0,0,0,993.2,1006.7
161,2023-06-19T02:40:00,1.6,北北東,2.5,北北東,19.2,83.1,0,0,0,0,0,0,993.1,1006.6
162,2023-06-19T02:41:00,1.6,北北東,2.5,北北東,19.3,83.7,0,0,0,0,0,0,993.2,1006.7
163,2023-06-19T02:42:00,1.6,北北東,2.5,北北東,19.3,84.1,0,0,0,0,0,0,993.1,1006.6
164,2023-06-19T02:43:00,1.6,北北東,2.5,北北東,19.3,84.1,0,0,0,0,0,0,993.1,1006.6
165,2023-06-19T02:44:00,1.6,北北東,2.5,北北東,19.3,84.4,0,0,0,0,0,0,993.2,1006.7
166,2023-06-19T02:45:00,1.5,北北東,2.5,北北東,19.3,84,0,0,0,0,0,0,993.2,1006.7
167,2023-06-19T02:46:00,1.5,北北東,2.5,北北東,19.4,83.8,0,0,0,0,0,0,993.2,1006.7
168,2023-06-19T02:47:00,1.3,北北東,2.3,北北東,19.3,83.6,0,0,0,0,0,0,993.2,1006.7
169,2023-06-19T02:48:00,1.2,北北東,2.2,北,19.3,83.6,0,0,0,0,0,0,993.2,1006.7
170,2023-06-19T02:49:00,1,北北東,2.2,北,19.3,83.5,0,0,0,0,0,0,993.2,1006.7
171,2023-06-19T02:50:00,0.9,北北東,2.1,北東,19.1,83.3,0,0,0,0,0,0,993.2,1006.7
172,2023-06-19T02:51:00,0.9,北,2.1,北東,19,83.6,0,0,0,0,0,0,993.2,1006.7
173,2023-06-19T02:52:00,0.8,北,2.1,北東,19.1,84.1,0,0,0,0,0,0,993.2,1006.7
174,2023-06-19T02:53:00,0.7,北北西,2.1,北東,19.3,84.8,0,0,0,0,0,0,993.2,1006.7
175,2023-06-19T02:54:00,0.6,北北西,2,北東,19.1,84.7,0,0,0,0,0,0,993.2,1006.7
176,2023-06-19T02:55:00,0.6,北北西,1.6,北北東,19.1,84.3,0,0,0,0,0,0,993.2,1006.7
177,2023-06-19T02:56:00,0.6,北西,1.1,北西,19,84.4,0,0,0,0,0,0,993.2,1006.7
178,2023-06-19T02:57:00,0.6,北西,1.1,北西,19,84.6,0,0,0,0,0,0,993.2,1006.7
179,2023-06-19T02:58:00,0.6,北西,1.1,北西,19.1,85.1,0,0,0,0,0,0,993.2,1006.7
180,2023-06-19T02:59:00,0.6,北西,1.1,北西,18.9,85,0,0,0,0,0,0,993.3,1006.8
181,2023-06-19T03:00:00,0.7,北西,1.1,北西,18.9,85.3,0,0,0,0,0,0,993.3,1006.8
182,2023-06-19T03:01:00,0.7,北西,1.1,北西,19,85.8,0,0,0,0,0,0,993.2,1006.7
183,2023-06-19T03:02:00,0.7,北西,1.1,北西,18.9,85.6,0,0,0,0,0,0,993.2,1006.7
184,2023-06-19T03:03:00,0.7,北西,1.1,北西,19,85.9,0,0,0,0,0,0,993.2,1006.7
185,2023-06-19T03:04:00,0.7,北西,1.1,北西,18.9,86,0,0,0,0,0,0,993.2,1006.7
186,2023-06-19T03:05:00,0.6,北西,1.1,北西,18.9,85.9,0,0,0,0,0,0,993.2,1006.7
187,2023-06-19T03:06:00,0.6,北西,1.1,北西,18.7,85.5,0,0,0,0,0,0,993.1,1006.6
188,2023-06-19T03:07:00,0.6,北西,1.1,北西,18.7,85.8,0,0,0,0,0,0,993.2,1006.8
189,2023-06-19T03:08:00,0.6,北西,1.1,北西,18.9,86.3,0,0,0,0,0,0,993.2,1006.7
190,2023-06-19T03:09:00,0.6,西北西,1.1,北西,18.8,86.6,0,0,0,0,0,0,993.2,1006.7
191,2023-06-19T03:10:00,0.7,西北西,1.1,北西,18.8,86.1,0,0,0,0,0,0,993.1,1006.6
192,2023-06-19T03:11:00,0.7,西北西,1.2,西,18.8,86.3,0,0,0,0,0,0,993.1,1006.6
193,2023-06-19T03:12:00,0.6,西北西,1.2,西,18.8,86.1,0,0,0,0,0,0,993.1,1006.6
194,2023-06-19T03:13:00,0.7,西北西,1.2,西,18.8,86,0,0,0,0,0,0,993.1,1006.6
195,2023-06-19T03:14:00,0.7,西北西,1.4,北西,18.8,86,0,0,0,0,0,0,993.1,1006.6
196,2023-06-19T03:15:00,0.8,西北西,1.4,北西,18.9,85.8,0,0,0,0,0,0,993.1,1006.6
197,2023-06-19T03:16:00,0.9,西北西,1.7,西北西,19,85.8,0,0,0,0,0,0,993.1,1006.6
198,2023-06-19T03:17:00,1,西北西,1.7,西北西,18.7,85.7,0,0,0,0,0,0,993.1,1006.6
199,2023-06-19T03:18:00,1,西北西,2.1,西北西,18.5,85.5,0,0,0,0,0,0,993.1,1006.7
200,2023-06-19T03:19:00,1.1,西北西,2.2,西,18.5,86.4,0,0,0,0,0,0,993.1,1006.7
201,2023-06-19T03:20:00,1.2,西北西,2.2,西,18.3,87.3,0,0,0,0,0,0,993.1,1006.7
202,2023-06-19T03:21:00,1.3,西北西,2.4,西,18.1,87.7,0,0,0,0,0,0,993.1,1006.7
203,2023-06-19T03:22:00,1.4,西北西,2.5,西,17.9,88.6,0,0,0,0,0,0,993.1,1006.7
204,2023-06-19T03:23:00,1.5,西北西,2.5,西,17.8,89,0,0,0,0,0,0,993.1,1006.7
205,2023-06-19T03:24:00,1.6,西,2.5,西,17.9,90.2,0,0,0,0,0,0,993.1,1006.7
206,2023-06-19T03:25:00,1.7,西,2.5,西,18,91.5,0,0,0,0,0,0,993.1,1006.7
207,2023-06-19T03:26:00,1.7,西,2.5,西,17.8,91.4,0,0,0,0,0,0,993.1,1006.7
208,2023-06-19T03:27:00,1.7,西,2.5,西,17.8,91.3,0,0,0,0,0,0,993.1,1006.7
209,2023-06-19T03:28:00,1.8,西,2.5,西,17.9,91.9,0,0,0,0,0,0,993.1,1006.7
210,2023-06-19T03:29:00,1.8,西,2.5,西,18,92.4,0,0,0,0,0,0,993.1,1006.7
211,2023-06-19T03:30:00,1.8,西,2.5,西,18.1,92.6,0,0,0,0,0,0,993.1,1006.7
212,2023-06-19T03:31:00,1.7,西,2.5,西,18,92.4,0,0,0,0,0,0,993.1,1006.7
213,2023-06-19T03:32:00,1.6,西,2.5,西,17.9,92.1,0,0,0,0,0,0,993.1,1006.7
214,2023-06-19T03:33:00,1.5,西,2.4,西,17.8,91.5,0,0,0,0,0,0,993.1,1006.7
215,2023-06-19T03:34:00,1.4,西,2.4,西,17.7,91.6,0,0,0,0,0,0,993.1,1006.7
216,2023-06-19T03:35:00,1.2,西,2.3,西,17.8,91.9,0,0,0,0,0,0,993.1,1006.7
217,2023-06-19T03:36:00,1.1,西,2.2,西,18,92.6,0,0,0,0,0,0,993.2,1006.8
218,2023-06-19T03:37:00,1.1,西,2.1,西北西,18.3,93.2,0,0,0,0,0,0,993.2,1006.8
219,2023-06-19T03:38:00,1.1,西,2.3,西,18.3,92.9,0,0,0,0,0,0,993.2,1006.8
220,2023-06-19T03:39:00,1.1,西,2.3,西,18.2,91.9,0,0,0,0,0,0,993.2,1006.8
221,2023-06-19T03:40:00,1.1,西,2.3,西,18,91.4,0,0,0,0,0,0,993.2,1006.8
222,2023-06-19T03:41:00,1.1,西,2.3,西,18.1,91.1,0,0,0,0,0,0,993.2,1006.8
223,2023-06-19T03:42:00,1.1,西北西,2.3,西,18.3,91.5,0,0,0,0,0,0,993.1,1006.7
224,2023-06-19T03:43:00,1.2,西北西,2.3,西,18.3,91.6,0,0,0,0,0,0,993.1,1006.7
225,2023-06-19T03:44:00,1.3,西北西,2.3,西,18.4,91.3,0,0,0,0,0,0,993.1,1006.7
226,2023-06-19T03:45:00,1.4,西北西,2.3,西,18.5,91.2,0,0,0,0,0,0,993.1,1006.7
227,2023-06-19T03:46:00,1.4,西北西,2.3,西,18.3,90.8,0,0,0,0,0,0,993.2,1006.8
228,2023-06-19T03:47:00,1.4,西北西,2.3,西,18.2,90.1,0,0,0,0,0,0,993.1,1006.7
229,2023-06-19T03:48:00,1.2,西北西,2.2,西,18.1,89.8,0,0,0,0,0,0,993.1,1006.7
230,2023-06-19T03:49:00,1.1,西北西,2,西,18,89.7,0,0,0,0,0,0,993.1,1006.7
231,2023-06-19T03:50:00,1,北西,1.8,西,18.1,90.1,0,0,0,0,0,0,993.1,1006.7
232,2023-06-19T03:51:00,0.9,北西,1.5,西北西,18.2,90.3,0,0,0,0,0,0,993.1,1006.7
233,2023-06-19T03:52:00,0.8,北西,1.5,西北西,18.2,90.3,0,0,0,0,0,0,993.2,1006.8
234,2023-06-19T03:53:00,0.7,北西,1.5,西北西,18.2,89.6,0,0,0,0,0,0,993.1,1006.7
235,2023-06-19T03:54:00,0.6,北西,1.5,西北西,18.2,89.6,0,0,0,0,0,0,993.2,1006.8
236,2023-06-19T03:55:00,0.6,北西,1.5,西北西,18.1,89.5,0,0,0,0,0,0,993.2,1006.8
237,2023-06-19T03:56:00,0.5,北西,1.5,西北西,18.2,89.6,0,0,0,0,0,0,993.2,1006.8
238,2023-06-19T03:57:00,0.4,北西,1.2,西南西,18.1,89.3,0,0,0,0,0,0,993.1,1006.7
239,2023-06-19T03:58:00,0.5,北北西,1.2,西南西,18.2,89.1,0,0,0,0,0,0,993.1,1006.7
240,2023-06-19T03:59:00,0.5,北北西,1.4,北,18.2,89.2,0,0,0,0,0,0,993.1,1006.7
241,2023-06-19T04:00:00,0.5,北北西,1.4,北,18.2,89,0,0,0,0,0,0,993.1,1006.7
242,2023-06-19T04:01:00,0.6,北北西,1.4,北,18.2,88.7,0,0,0,0,0,0,993.2,1006.8
243,2023-06-19T04:02:00,0.6,北北西,1.4,北,18.3,88.5,0,0,0,0,0,0,993.2,1006.8
244,2023-06-19T04:03:00,0.6,北,1.4,北,18.1,87.8,0,0,0,0,0,0,993.2,1006.8
245,2023-06-19T04:04:00,0.7,北,1.4,北,18.4,88.1,0,0,0,0,0,0,993.2,1006.8
246,2023-06-19T04:05:00,0.7,北,1.4,北,18.5,88.1,0,0,0,0,0,0,993.2,1006.8
247,2023-06-19T04:06:00,0.7,北,1.4,北,18.4,87.7,0,0,0,0,0,0,993.2,1006.8
248,2023-06-19T04:07:00,0.7,北,1.4,北,18.5,87.4,0,0,0,0,0,0,993.2,1006.8
249,2023-06-19T04:08:00,0.7,北,1.4,北,18.4,87.2,0,0,0,0,0,0,993.2,1006.8
250,2023-06-19T04:09:00,0.7,北,1.4,北,18.4,87,0,0,0,0,0,0,993.2,1006.8
251,2023-06-19T04:10:00,0.7,北,1.4,北,18.3,86.6,0,0,0,0,0,0,993.2,1006.8
252,2023-06-19T04:11:00,0.7,北,1.4,北,18.3,86.8,0,0,0,0,0,0,993.2,1006.8
253,2023-06-19T04:12:00,0.7,北北西,1.4,北,18.2,86.8,0,0,0,0,0,0,993.2,1006.8
254,2023-06-19T04:13:00,0.8,北北西,1.8,西北西,18.2,86.9,0,0,0,0,0,0,993.2,1006.8
255,2023-06-19T04:14:00,0.8,北北西,1.8,西北西,18.2,87.4,0,0,0,0,0,0,993.2,1006.8
256,2023-06-19T04:15:00,0.9,北西,2,北西,18.2,87.2,0,0,0,0,0,0,993.2,1006.8
257,2023-06-19T04:16:00,1,北西,2,北西,18.3,87.5,0,0,0,0,0,0,993.2,1006.8
258,2023-06-19T04:17:00,1,北西,2,北西,18.3,87.6,0,0,0,0,0,0,993.2,1006.8
259,2023-06-19T04:18:00,1.1,北西,2,北西,18,87.3,0,0,0,0,0,0,993.3,1006.9
260,2023-06-19T04:19:00,1.1,北西,2,北西,17.9,87.4,0,0,0,0,0,0,993.3,1006.9
261,2023-06-19T04:20:00,1.1,北西,2,北西,17.9,87.9,0,0,0,0,0,0,993.3,1006.9
262,2023-06-19T04:21:00,1.1,北西,2,北西,18.1,88.9,0,0,0,0,0,0,993.3,1006.9
263,2023-06-19T04:22:00,1.1,北西,2,北西,18,89.2,0,0,0,0,0,0,993.3,1006.9
264,2023-06-19T04:23:00,1.1,北西,2,北西,18,89.2,0,0,0,0,0,0,993.2,1006.8
265,2023-06-19T04:24:00,1,北西,2,北西,17.9,89.4,0,0,0,0,0,0,993.2,1006.8
266,2023-06-19T04:25:00,0.9,北西,1.8,北西,17.8,89.4,0,0,0,0,0,0,993.2,1006.8
267,2023-06-19T04:26:00,0.8,北西,1.8,北西,17.8,89.8,0,0,0,0,0,0,993.2,1006.8
268,2023-06-19T04:27:00,0.7,西北西,1.8,北西,17.7,89.9,0,0,0,0,0,0,993.2,1006.8
269,2023-06-19T04:28:00,0.7,北西,1.7,西北西,17.8,90.4,0,0,0,0,0,0,993.2,1006.8
270,2023-06-19T04:29:00,0.6,北西,1.6,西北西,17.7,90.4,0,0,0,0,0,0,993.2,1006.8
271,2023-06-19T04:30:00,0.6,北西,1.7,北北東,17.7,90.8,0,0,0,0,0,0,993.2,1006.8
272,2023-06-19T04:31:00,0.6,北西,1.7,北北東,17.8,90.9,0,0,0,0,0,0,993.2,1006.8
273,2023-06-19T04:32:00,0.6,北西,1.7,北北東,18,91.3,0,0,0,0,0,0,993.3,1006.9
274,2023-06-19T04:33:00,0.6,北北西,1.7,北北東,18,91,0,0,0,0,0,0,993.2,1006.8
275,2023-06-19T04:34:00,0.6,北北西,1.7,北北東,17.9,90.4,0,0,0,0,0,0,993.2,1006.8
276,2023-06-19T04:35:00,0.6,北北西,1.7,北北東,17.9,90.2,0,0,0,0,0,0,993.2,1006.8
277,2023-06-19T04:36:00,0.7,北北西,1.7,北北東,17.8,89.9,0,0,0,0,0,0,993.2,1006.8
278,2023-06-19T04:37:00,0.8,北北西,1.7,北北東,17.9,90,0,0,0,0,0,0,993.2,1006.8
279,2023-06-19T04:38:00,0.8,北西,1.7,北北東,17.9,89.9,0,0,0,0,0,0,993.2,1006.8
280,2023-06-19T04:39:00,0.8,北西,1.7,北北東,17.8,89.6,0,0,0,0,0,0,993.2,1006.8
281,2023-06-19T04:40:00,0.8,北西,1.5,北西,17.9,89.7,0,0,0,0,0,0,993.2,1006.8
282,2023-06-19T04:41:00,0.9,北西,1.5,北西,17.9,89.9,0,0,0,0,0,0,993.2,1006.8
283,2023-06-19T04:42:00,0.9,北西,1.8,西,18,90,0,0,0,0,0,0,993.3,1006.9
284,2023-06-19T04:43:00,1,北西,1.8,西,18,90,0,0,0,0,0,0,993.3,1006.9
285,2023-06-19T04:44:00,1.1,北西,1.9,西北西,17.9,89.4,0,0,0,0,0,0,993.3,1006.9
286,2023-06-19T04:45:00,1.1,北西,1.9,西北西,17.9,89.2,0,0,0,0,0,0,993.3,1006.9
287,2023-06-19T04:46:00,1.2,北西,1.9,西北西,17.7,89.3,0,0,0,0,0,0,993.3,1006.9
288,2023-06-19T04:47:00,1.2,西北西,1.9,西北西,17.8,89.3,0,0,0,0,0,0,993.3,1006.9
289,2023-06-19T04:48:00,1.3,西北西,1.9,西北西,17.7,89.6,0,0,0,0,0,0,993.3,1006.9
290,2023-06-19T04:49:00,1.4,西北西,1.9,西北西,17.7,89.7,0,0,0,0,0,0,993.4,1007
291,2023-06-19T04:50:00,1.5,西北西,2.3,北西,17.6,89.8,0,0,0,0,0,0,993.4,1007
292,2023-06-19T04:51:00,1.5,西北西,2.3,北西,17.8,90.4,0,0,0,0,0,0,993.4,1007
293,2023-06-19T04:52:00,1.5,西北西,2.3,北西,17.7,90.2,0,0,0,0,0,0,993.4,1007
294,2023-06-19T04:53:00,1.5,西北西,2.3,北西,17.8,90.5,0,0,0,0,0,0,993.4,1007
295,2023-06-19T04:54:00,1.4,西北西,2.3,北西,17.8,90.5,0,0,0,0,0,0,993.4,1007
296,2023-06-19T04:55:00,1.4,西北西,2.3,北西,17.8,90.4,0,0,0,0,0,0,993.4,1007
297,2023-06-19T04:56:00,1.3,西北西,2.3,北西,17.8,90.3,0,0,0,0,0,0,993.4,1007
298,2023-06-19T04:57:00,1.3,西北西,2.3,北西,17.8,90.4,0,0,0,0,0,0,993.4,1007
299,2023-06-19T04:58:00,1.2,西北西,2.3,北西,17.8,90.2,0,0,0,0,0,0,993.4,1007
300,2023-06-19T04:59:00,1.2,北西,2.3,北西,17.9,90.3,0,0,0,0,0.01,0,993.4,1007
301,2023-06-19T05:00:00,1,北西,2,西北西,17.7,90.3,0,0,0,0,0.01,0,993.4,1007
302,2023-06-19T05:01:00,0.9,北西,2,西北西,17.6,90,0,0,0,0,0.01,0,993.4,1007
303,2023-06-19T05:02:00,0.9,北西,1.8,西北西,17.7,90.1,0,0,0,0,0.01,0,993.4,1007
304,2023-06-19T05:03:00,0.8,北西,1.8,西北西,17.7,90.5,0,0,0,0,0.01,0,993.4,1007
305,2023-06-19T05:04:00,0.8,北西,1.8,西北西,17.6,90.3,0,0,0,0,0.01,0,993.4,1007
306,2023-06-19T05:05:00,0.8,北北西,1.7,北,17.8,90.4,0,0,0,0,0.01,0,993.4,1007
307,2023-06-19T05:06:00,0.8,北北西,2,北北東,17.8,90.6,0,0,0,0,0.01,0,993.4,1007
308,2023-06-19T05:07:00,0.9,北北西,2,北北東,18,90.9,0,0,0,0,0.01,0,993.4,1007
309,2023-06-19T05:08:00,0.9,北北西,2,北北東,17.9,90.4,0,0,0,0,0.02,0,993.4,1007
310,2023-06-19T05:09:00,0.9,北,2,北北東,17.9,90,0,0,0,0,0.02,0,993.5,1007.1
311,2023-06-19T05:10:00,1,北,2.5,北北東,17.8,89.5,0,0,0,0,0.02,0,993.5,1007.1
312,2023-06-19T05:11:00,1,北,2.5,北北東,17.9,89.4,0,0,0,0,0.02,0,993.5,1007.1
313,2023-06-19T05:12:00,1,北,2.5,北北東,17.9,89.4,0,0,0,0,0.02,0,993.5,1007.1
314,2023-06-19T05:13:00,1,北,2.5,北北東,17.9,89.2,0,0,0,0,0.02,0,993.5,1007.1
315,2023-06-19T05:14:00,1.1,北,2.5,北北東,18,89.2,0,0,0,0,0.02,0,993.5,1007.1
316,2023-06-19T05:15:00,1,北,2.5,北北東,18.1,89.2,0,0,0,0,0.03,0,993.6,1007.2
317,2023-06-19T05:16:00,1,北,2.5,北北東,18.1,89.2,0,0,0,0,0.03,0,993.6,1007.2
318,2023-06-19T05:17:00,1,北,2.6,北北東,17.9,88.6,0,0,0,0,0.03,0,993.6,1007.2
319,2023-06-19T05:18:00,1.1,北,2.6,北北東,18.1,88.6,0,0,0,0,0.03,0,993.6,1007.2
320,2023-06-19T05:19:00,1.2,北,2.6,北北東,18,88.6,0,0,0,0,0.03,0,993.6,1007.2
321,2023-06-19T05:20:00,1.2,北,2.6,北北東,18.1,88.6,0,0,0,0,0.04,0,993.6,1007.2
322,2023-06-19T05:21:00,1.2,北,2.6,北北東,18.1,88.6,0,0,0,0,0.04,0,993.7,1007.3
323,2023-06-19T05:22:00,1.3,北,2.6,北北東,18.3,88.5,0,0,0,0,0.04,0,993.7,1007.3
324,2023-06-19T05:23:00,1.4,北,2.6,北北東,18.1,88.3,0,0,0,0,0.05,0,993.7,1007.3
325,2023-06-19T05:24:00,1.4,北,2.6,北北東,18.2,88,0,0,0,0,0.05,0,993.7,1007.3
326,2023-06-19T05:25:00,1.4,北,2.6,北北東,18.1,87.9,0,0,0,0,0.05,0,993.7,1007.3
327,2023-06-19T05:26:00,1.4,北,2.6,北北東,18,87.4,0,0,0,0,0.05,0,993.7,1007.3
328,2023-06-19T05:27:00,1.4,北,2.6,北北東,18,87.8,0,0,0,0,0.06,0,993.7,1007.3
329,2023-06-19T05:28:00,1.4,北,3,北東,18,88,0,0,0,0,0.06,0,993.8,1007.4